Weather History for KAHN - October, 2014

Change the Weather History Date:

Thursday, October 16, 2014

  Actual Average Record
Temperature  
Mean Temperature 58 °F 63 °F  
Max Temperature 66 °F 74 °F 89 °F (1920)
Min Temperature 50 °F 51 °F 35 °F (1939)
Degree Days  
Heating Degree Days 7 4  
Month to date heating degree days 35 42  
Since 1 July heating degree days 37 52  
Cooling Degree Days 0 2  
Month to date cooling degree days 78 46  
Year to date cooling degree days 1973 1861  
Growing Degree Days 10 (Base 50)    
Moisture  
Dew Point 50 °F    
Average Humidity 75    
Maximum Humidity 93    
Minimum Humidity 56    
Precipitation  
Precipitation T in 0.11 in 2.00 in (1890)
Month to date precipitation 3.41 2.00  
Year to date precipitation 37.72 37.23  
Snow  
Snow 0.00 in 0.00 in 0.00 in (2001)
Month to date snowfall 0.0 0.0  
Since 1 July snowfall 0.0 0.0  
Since 1 September snowfall 0.0 0.0  
Snow Depth 0.00 in    
Sea Level Pressure  
Sea Level Pressure 29.89 in    
Wind  
Wind Speed 5 mph (WNW)    
Max Wind Speed 17 mph    
Max Gust Speed 24 mph    
Visibility 10 miles    
Events Rain    
T = Trace of Precipitation, MM = Missing Value Source: NWS Daily Summary

Daily Weather History Graph

Daily Weather History Graph

Search for Another Location

Airport or City:

Trip Planner

Search our weather history database for the weather conditions in past years. The results will help you decide how hot, cold, wet, or windy it might be!

Date:

Astronomy

Oct. 16, 2014 Rise Set
Actual Time 7:39 AM EDT 6:58 PM EDT
Civil Twilight 7:13 AM EDT 7:23 PM EDT
Nautical Twilight 6:44 AM EDT 7:52 PM EDT
Astronomical Twilight 6:15 AM EDT 8:21 PM EDT
Moon 1:05 AM EDT (10/16) 2:52 PM EDT (10/16)
Length of Visible Light 12h 09m
Length of Day
11h 18m
Last Quarter, 42% of the Moon is Illuminated
Oct 16
Last Quarter
Oct 23
New
Oct 30
First Quarter
Nov 6
Full
Nov 14
Last Quarter

Hourly Weather History & Observations

Time (EDT) Temp. Dew Point Humidity Pressure Visibility Wind Dir Wind Speed Gust Speed Precip Events Conditions
12:51 AM 59.0 °F 52.0 °F 78% 29.87 in 10.0 mi Calm Calm - N/A   Overcast
1:51 AM 57.9 °F 52.0 °F 81% 29.86 in 10.0 mi Calm Calm - 0.00 in Rain Light Rain
2:51 AM 57.0 °F 51.1 °F 81% 29.86 in 10.0 mi WSW 3.5 mph - 0.00 in   Overcast
3:51 AM 57.0 °F 51.1 °F 81% 29.85 in 10.0 mi Calm Calm - N/A   Overcast
4:51 AM 57.0 °F 51.1 °F 81% 29.84 in 10.0 mi Calm Calm - N/A   Overcast
5:51 AM 55.0 °F 51.1 °F 86% 29.84 in 10.0 mi WSW 3.5 mph - N/A   Partly Cloudy
6:51 AM 53.1 °F 51.1 °F 93% 29.84 in 10.0 mi WSW 3.5 mph - N/A   Clear
7:51 AM 53.1 °F 51.1 °F 93% 29.86 in 10.0 mi WSW 3.5 mph - N/A   Scattered Clouds
8:51 AM 55.4 °F 51.8 °F 88% 29.88 in 10.0 mi West 3.5 mph - N/A   Mostly Cloudy
9:32 AM 59.0 °F 51.8 °F 77% 29.89 in 10.0 mi Variable 5.8 mph - N/A   Mostly Cloudy
9:51 AM 60.1 °F 52.0 °F 75% 29.89 in 10.0 mi Variable 5.8 mph - N/A   Mostly Cloudy
10:51 AM 61.0 °F 50.0 °F 67% 29.89 in 10.0 mi WNW 11.5 mph 17.3 mph N/A   Overcast
11:37 AM 62.6 °F 50.0 °F 63% 29.90 in 10.0 mi NW 9.2 mph 17.3 mph N/A   Overcast
11:51 AM 62.1 °F 50.0 °F 65% 29.90 in 10.0 mi NW 8.1 mph - N/A   Overcast
12:51 PM 64.0 °F 48.9 °F 58% 29.90 in 10.0 mi WNW 10.4 mph 18.4 mph N/A   Mostly Cloudy
1:51 PM 64.0 °F 48.9 °F 58% 29.89 in 10.0 mi WNW 10.4 mph 18.4 mph N/A   Overcast
2:51 PM 63.0 °F 48.9 °F 60% 29.89 in 10.0 mi WNW 10.4 mph 20.7 mph N/A   Overcast
3:51 PM 64.9 °F 48.9 °F 56% 29.89 in 10.0 mi WNW 9.2 mph 19.6 mph N/A   Scattered Clouds
4:51 PM 64.0 °F 48.9 °F 58% 29.90 in 10.0 mi NW 10.4 mph 16.1 mph N/A   Clear
5:51 PM 64.0 °F 50.0 °F 60% 29.90 in 10.0 mi WNW 8.1 mph - N/A   Partly Cloudy
6:51 PM 60.1 °F 48.9 °F 67% 29.91 in 10.0 mi West 4.6 mph - N/A   Clear
7:51 PM 57.9 °F 48.9 °F 72% 29.93 in 10.0 mi West 4.6 mph - N/A   Clear
8:51 PM 55.9 °F 48.9 °F 77% 29.94 in 10.0 mi WNW 5.8 mph - N/A   Clear
9:51 PM 55.0 °F 48.9 °F 80% 29.94 in 10.0 mi NW 4.6 mph - N/A   Clear
10:51 PM 54.0 °F 48.9 °F 83% 29.95 in 10.0 mi Calm Calm - N/A   Clear
11:51 PM 51.1 °F 48.0 °F 89% 29.95 in 10.0 mi WNW 3.5 mph - N/A   Clear